Regional Weather Roundup
Issued by NWS

Home | Current Version | Previous Version | Graphics & Text | Print | Product List | Glossary Off
Versions: 1 2 3 4 5 6 7 8 9 10 11 12 13 14 15 16 17 18 19 20 21 22 23 24 25 26 27 28 29 30 31 32 33 34 35 36 37 38 39 40 41 42 43 44 45 46 47 48 49 50

480
ASUS43 KLSX 251807
RWRMO

WEATHER SUMMARY FOR MISSOURI
NATIONAL WEATHER SERVICE SPRINGFIELD MO
100 PM CDT MON JUL 25 2016

NOTE: "FAIR" INDICATES FEW OR NO CLOUDS BELOW 12,000 FEET WITH NO
       SIGNIFICANT WEATHER AND/OR OBSTRUCTIONS TO VISIBILITY.
       CURRENT SKY AND/OR WEATHER CONDITIONS ARE NOT AVAILABLE FOR
       CHILLICOTHE AND FARMINGTON.

MOZ001>031-035>038-043-044-053-054-251900-
...NORTHERN AND WESTERN MISSOURI...

CITY           SKY/WX    TMP DP  RH WIND       PRES   REMARKS
KANSAS CTY INT CLOUDY    79  70  74 N7        30.07F
6HR MIN TEMP:  73; 6HR MAX TEMP:  79;

KANSAS C DTWN  CLOUDY    80  70  71 NW3       30.05F
6HR MIN TEMP:  75; 6HR MAX TEMP:  81;

LEE`S SUMMIT   CLOUDY    77  71  82 N5        30.07F
6HR MIN TEMP:  73; 6HR MAX TEMP:  77;

ST JOSEPH      PTSUNNY   81  66  60 E3        30.08F
6HR MIN TEMP:  71; 6HR MAX TEMP:  82;

CHILLICOTHE      N/A     84  68  58 VRB5      30.09S
6HR MIN TEMP:  73; 6HR MAX TEMP:  84;

KIRKSVILLE     MOSUNNY   85  65  51 N8        30.09S
6HR MIN TEMP:  71; 6HR MAX TEMP:  85; 6HR PCP: TRACE;


$$
MOZ066>068-077>081-088>096-101>105-251900-
...SOUTHWEST MISSOURI...

CITY           SKY/WX    TMP DP  RH WIND       PRES   REMARKS
SPRINGFIELD    CLOUDY    75  70  84 SW8       30.08F
6HR MIN TEMP:  72; 6HR MAX TEMP:  76; 6HR PCP:  2.08;

JOPLIN         CLOUDY    76  72  87 NE3       30.05F
6HR MIN TEMP:  74; 6HR MAX TEMP:  77; 6HR PCP:  0.08;

BRANSON        CLOUDY    75  70  83 NW3       30.10F

$$
MOZ032>034-039>042-045>050-055>058-069>072-251900-
...CENTRAL MISSOURI...

CITY           SKY/WX    TMP DP  RH WIND       PRES   REMARKS
COLUMBIA       CLOUDY    78  73  84 NW6       30.08S
6HR MIN TEMP:  72; 6HR MAX TEMP:  79;

JEFFERSON CITY PTSUNNY   81  73  76 W5        30.06F
6HR MIN TEMP:  73; 6HR MAX TEMP:  81; 6HR PCP: TRACE;

ROLLA          CLOUDY    80  72  76 NW10      30.05F
6HR MIN TEMP:  71; 6HR MAX TEMP:  80; 6HR PCP: TRACE;

SEDALIA        CLOUDY    79  73  82 NW6       30.09F
6HR MIN TEMP:  73; 6HR MAX TEMP:  79; 6HR PCP:  0.06;

OSAGE BEACH    CLOUDY    76  73  91 W7        30.08F

$$
MOZ051-052-059>065-251900-
...EAST CENTRAL MISSOURI...

CITY           SKY/WX    TMP DP  RH WIND       PRES   REMARKS
ST LOUIS INTL  CLOUDY    83  71  67 VRB5      30.04F
6HR MIN TEMP:  75; 6HR MAX TEMP:  85; 6HR PCP: TRACE;

SPIRIT OF STL  MOSUNNY   84  75  74 CALM      30.01F HX  92
6HR MIN TEMP:  73; 6HR MAX TEMP:  84; 6HR PCP:  0.03;

ST CHARLES     MOSUNNY   83  75  77 NW5       30.02F HX  90
6HR MIN TEMP:  73; 6HR MAX TEMP:  83; 6HR PCP:  0.03;


$$
MOZ072>076-082>087-097>100-106>115-251900-
...SOUTH CENTRAL AND SOUTHEAST MISSOURI...

CITY           SKY/WX    TMP DP  RH WIND       PRES   REMARKS
CAPE GIRARDEAU MOSUNNY   90  76  63 SW8       29.98F HX 101
6HR MIN TEMP:  77; 6HR MAX TEMP:  90;

FARMINGTON     MOSUNNY   87  73  62 NW10      30.04F HX  94
6HR MIN TEMP:  74; 6HR MAX TEMP:  87;

POPLAR BLUFF   LGT RAIN  82  74  76 NW12      30.00S
6HR MIN TEMP:  77; 6HR MAX TEMP:  90; 6HR PCP: TRACE;

WEST PLAINS    CLOUDY    85  72  65 CALM      30.07F HX  91
6HR MIN TEMP:  74; 6HR MAX TEMP:  85; 6HR PCP:  1.66;


$$



USA.gov is the U.S. government's official web portal to all federal, state and local government web resources and services.